Regional Weather Roundup
Issued by NWS

Home | Current Version | Previous Version | Graphics & Text | Print | Product List | Glossary Off
Versions: 1 2 3 4 5 6 7 8 9 10 11 12 13 14 15 16 17 18 19 20 21 22 23 24 25 26 27 28 29 30 31 32 33 34 35 36 37 38 39 40 41 42 43 44 45 46 47 48 49 50

000
ASUS43 KTOP 281359
RWRKS

WEATHER ROUNDUP FOR KANSAS
NATIONAL WEATHER SERVICE GOODLAND KS
900 AM CDT SAT MAY 28 2016

NOTE:  "FAIR" INDICATES FEW OR NO CLOUDS BELOW 12,000 FEET WITH NO
SIGNIFICANT WEATHER AND/OR OBSTRUCTIONS TO VISIBILITY.

KSZ001>006-013>018-027>032-041>047-281500-
NORTHWEST KANSAS

CITY           SKY/WX    TMP DP  RH WIND       PRES   REMARKS
GOODLAND       SUNNY     56  49  77 NW9       29.96R
HAYS           SUNNY     57  48  72 W12       29.89R
HILL CITY      SUNNY     61  54  77 NW9       29.91R
RUSSELL        MOSUNNY   59  55  87 W9        29.87R
$$

KSZ061>065-074>080-084>089-281500-
SOUTHWEST KANSAS

CITY           SKY/WX    TMP DP  RH WIND       PRES   REMARKS
DODGE CITY     SUNNY     58  51  78 W9        29.95R
ELKHART          N/A     59  46  62 NW5         N/A
GARDEN CITY    SUNNY     60  50  69 NW9       29.95R
GREAT BEND     SUNNY     61  50  67 W13       29.90R
LIBERAL        SUNNY     61  48  63 NW12      30.00R
$$

KSZ066>073-081>083-090>101-281500-
SOUTHEAST KANSAS

CITY           SKY/WX    TMP DP  RH WIND       PRES   REMARKS
CHANUTE        MOSUNNY   67  60  78 SW17G26   29.85R
COFFEYVILLE    PTSUNNY   68  61  78 SW16      29.88R
HUTCHINSON     SUNNY     64  56  75 W13       29.88R
MEDICINE LODGE   N/A     63  52  67 NW9       29.91R
NEWTON         MOSUNNY   63  55  77 W9        29.90R
PARSONS        PTSUNNY   67  61  81 SW12G17   29.88R
WICHITA INTL   MOSUNNY   66  58  75 W10       29.88R
WICHITA JABRA  SUNNY     64  58  80 W9        29.88R
WINFIELD       SUNNY     65  58  78 W10       29.89R
$$

KSZ007>012-019>026-033>040-048>060-102>105-281500-
NORTHEAST KANSAS

CITY           SKY/WX    TMP DP  RH WIND       PRES   REMARKS
CONCORDIA      CLOUDY    61  56  83 W7        29.84R
EMPORIA        CLOUDY    63  59  87 W8        29.83R
LAWRENCE       CLOUDY    63  60  90 SW14G24   29.80R
MANHATTAN      MOSUNNY   64  57  78 SW10      29.82R
OLATHE IND     CLOUDY    65  61  87 S16G23    29.81R
OLATHE EXE     CLOUDY    65  61  87 SW13G23   29.81S
SALINA         MOSUNNY   63  59  87 W9        29.87R
TOPEKA BILLARD CLOUDY    65  59  81 S12       29.80R
TOPEKA FORBES  CLOUDY    64  60  87 S12       29.81R
$$




USA.gov is the U.S. government's official web portal to all federal, state and local government web resources and services.